Weather History for Ardmore, OK

Change the Weather History Date:

Tuesday, February 18, 2014

  Actual Average Record
Temperature  
Mean Temperature 52 °F -  
Max Temperature 78 °F 55 °F 78 °F (2014)
Min Temperature 26 °F 37 °F 21 °F (2006)
Degree Days  
Heating Degree Days 13    
Growing Degree Days 2 (Base 50)    
Moisture  
Dew Point 36 °F    
Average Humidity 78    
Maximum Humidity 100    
Minimum Humidity 29    
Precipitation  
Precipitation 0.00 in - - ()
Sea Level Pressure  
Sea Level Pressure 29.98 in    
Wind  
Wind Speed 2 mph (South)    
Max Wind Speed 18 mph    
Max Gust Speed 25 mph    
Visibility 9 miles    
Events      
Averages and records for this station are not official NWS values.
T = Trace of Precipitation, MM = Missing Value Source: NWS Daily Summary

Daily Weather History Graph

Daily Weather History Graph

Search for Another Location

Airport:

Trip Planner

Search our weather history database for the weather conditions in past years. The results will help you decide how hot, cold, wet, or windy it might be!

Date:

Astronomy

Feb. 18, 2014 Rise Set
Actual Time 7:09 AM CST 6:14 PM CST
Civil Twilight 6:44 AM CST 6:40 PM CST
Nautical Twilight 6:14 AM CST 7:09 PM CST
Astronomical Twilight 5:45 AM CST 7:38 PM CST
Moon 9:56 PM CST (2/18) 8:53 AM CST (2/18)
Length of Visible Light 11h 55m
Length of Day
11h 04m
Waning Gibbous, 87% of the Moon is Illuminated
Feb 18
Waning Gibbous
Feb 22
Last Quarter
Mar 1
New
Mar 8
First Quarter
Mar 16
Full

Hourly Weather History & Observations

Time (CST) Temp. Windchill Dew Point Humidity Pressure Visibility Wind Dir Wind Speed Gust Speed Precip Events Conditions
12:15 AM 34.0 °F - 31.8 °F 92% 30.12 in 10.0 mi Calm Calm - N/A   Clear
12:35 AM 33.8 °F - 31.6 °F 92% 30.11 in 10.0 mi Calm Calm - N/A   Clear
12:55 AM 32.0 °F - 31.1 °F 96% 30.10 in 10.0 mi Calm Calm - N/A   Clear
1:15 AM 32.0 °F - 31.1 °F 96% 30.09 in 5.0 mi Calm Calm - N/A   Clear
1:35 AM 31.1 °F - 30.2 °F 96% 30.08 in 5.0 mi Calm Calm - N/A   Clear
1:55 AM 30.4 °F - 30.2 °F 99% 30.08 in 10.0 mi Calm Calm - N/A   Clear
2:15 AM 29.8 °F 26.3 °F 29.7 °F 99% 30.07 in 10.0 mi North 3.5 mph - N/A   Clear
2:35 AM 30.4 °F - 30.4 °F 100% 30.07 in 10.0 mi Calm Calm - N/A   Clear
2:55 AM 29.1 °F - 29.1 °F 100% 30.07 in 7.0 mi Calm Calm - N/A   Clear
3:15 AM 28.4 °F - 28.4 °F 100% 30.07 in 10.0 mi Calm Calm - N/A   Clear
3:35 AM 30.0 °F - 29.7 °F 99% 30.05 in 10.0 mi Calm Calm - N/A   Clear
3:55 AM 28.4 °F - 28.4 °F 100% 30.05 in 10.0 mi Calm Calm - N/A   Clear
4:15 AM 28.6 °F - 28.6 °F 100% 30.05 in 10.0 mi Calm Calm - N/A   Clear
4:35 AM 28.0 °F - 28.0 °F 100% 30.05 in 10.0 mi Calm Calm - N/A   Clear
4:55 AM 27.1 °F - 27.1 °F 100% 30.05 in 10.0 mi Calm Calm - N/A   Clear
5:15 AM 27.9 °F - 27.9 °F 100% 30.04 in 10.0 mi Calm Calm - N/A   Clear
5:35 AM 27.3 °F - 27.0 °F 99% 30.05 in 10.0 mi Calm Calm - N/A   Clear
6:55 AM 26.6 °F - 26.6 °F 100% 30.03 in 10.0 mi Calm Calm - N/A   Clear
7:55 AM 28.4 °F - 28.4 °F 100% 30.04 in 10.0 mi Calm Calm - N/A   Clear
8:55 AM 39.2 °F - 33.8 °F 81% 30.02 in 10.0 mi Calm Calm - N/A   Clear
9:55 AM 55.4 °F - 37.4 °F 51% 30.01 in 10.0 mi SSE 5.8 mph - N/A   Clear
10:55 AM 64.4 °F - 33.8 °F 32% 30.00 in 10.0 mi South 13.8 mph 18.4 mph N/A   Clear
11:55 AM 68.0 °F - 35.6 °F 30% 29.95 in 10.0 mi South 12.7 mph 17.3 mph N/A   Clear
12:55 PM 71.6 °F - 37.4 °F 29% 29.89 in 10.0 mi South 12.7 mph - N/A   Clear
1:55 PM 71.6 °F - 41.0 °F 33% 29.85 in 10.0 mi SSW 12.7 mph 17.3 mph N/A   Clear
2:55 PM 77.0 °F - 46.4 °F 34% 29.82 in 10.0 mi SW 16.1 mph 20.7 mph N/A   Clear
3:55 PM 78.8 °F - 46.4 °F 32% 29.80 in 10.0 mi SSW 18.4 mph 25.3 mph N/A   Clear
4:55 PM 78.8 °F - 48.2 °F 34% 29.80 in 10.0 mi SSW 13.8 mph - N/A   Clear
5:55 PM 75.2 °F - 48.2 °F 38% 29.81 in 10.0 mi Calm Calm - N/A   Clear
6:55 PM 66.2 °F - 48.2 °F 52% 29.82 in 10.0 mi Calm Calm - N/A   Clear
7:55 PM 57.2 °F - 48.2 °F 72% 29.84 in 10.0 mi Calm Calm - N/A   Clear
8:55 PM 55.4 °F - 48.2 °F 77% 29.86 in 10.0 mi Calm Calm - N/A   Clear
9:55 PM 50.0 °F - 44.6 °F 82% 29.88 in 10.0 mi Calm Calm - N/A   Clear
10:35 PM 49.6 °F - 45.3 °F 85% 29.88 in 7.0 mi Calm Calm - N/A   Clear
10:55 PM 48.7 °F - 45.1 °F 87% 29.89 in 10.0 mi Calm Calm - N/A   Clear
11:15 PM 50.2 °F - 46.6 °F 87% 29.89 in 10.0 mi Calm Calm - N/A   Clear
11:55 PM 48.0 °F - 45.3 °F 90% 29.89 in 5.0 mi Calm Calm - N/A   Clear